(222553) = 2001 VQ24

Discovered at Socorro on 2001-11-09 by LINEAR.

Orbit

Orbit type: Main Belt

Note: WebGL enabled browser required.

epoch2024-03-31.0
epoch JD2460400.5
perihelion date2022-03-05.00609
perihelion JD2459643.50609
argument of perihelion (°)215.90183
ascending node (°)226.15772
inclination (°)2.09201
eccentricity0.2145004
perihelion distance (AU)1.9877042
Tisserand w.r.t. Jupiter3.4
ΔV w.r.t. Earth (km/sec)8.9
semimajor axis (AU)2.5304968
mean anomaly (°)185.34785
mean daily motion (°/day)0.24484720
aphelion distance (AU)3.073
period (years)4.03
P-vector [x]0.13842568
P-vector [y]0.91695189
P-vector [z]0.37421592
Q-vector [x]-0.99002279
Q-vector [y]0.13816338
Q-vector [z]0.02767230
absolute magnitude16.97
phase slope0.15
uncertainty0
referenceMPEC 2024-D06
observations used665
oppositions12
arc length (days)7876
first opposition used2001
last opposition used2023
residual rms (arc-secs)0.72
perturbers coarse indicatorM-v
perturbers precise indicator003Ek
first observation date used2001-10-24.0
last observation date used2023-05-18.0
computer nameMPCLINUX
JD of orbit computation2456731.457600
perihelion JD uncertainty (days)3.3089E-04
argument of perihelion uncertainty (°)1.2861E-04
ascending node uncertainty (°)9.1360E-05
inclination uncertainty (°)1.5425E-05
eccentricity uncertainty 3.7868E-07
perihelion distance uncertainty (AU)9.7072E-07
Minimum Orbit Intersection Distances (in AU)
for orbit epoch: 2460400.5, reference: E2024-D06
Mercury1.68149
Venus1.26789
Earth1.00444
Mars0.42221
Jupiter2.17344
Saturn6.99278
Uranus15.8515
Neptune27.3275

Observations

713 total observations over interval: 1997 11 29.25271 – 2023 05 18.336874
These data are available for download (format description).

Date (UT) J2000 RA J2000 Dec Magn Location Ref
1997 11 29.25271 04 14 31.05 +19 49 50.6 18.8   704 – Lincoln Laboratory ETS, New Mexico MPS 155220
1997 11 29.30771 04 14 27.69 +19 49 34.1 19.0   704 – Lincoln Laboratory ETS, New Mexico MPS 155220
1997 11 29.32677 04 14 26.60 +19 49 29.7 19.1   704 – Lincoln Laboratory ETS, New Mexico MPS 155220
1997 11 29.34539 04 14 25.44 +19 49 25.4 18.9   704 – Lincoln Laboratory ETS, New Mexico MPS 155220
2001 10 24.40953 04 13 44.01 +21 01 52.3 19.5   704 – Lincoln Laboratory ETS, New Mexico MPS 44715
2001 10 24.42590 04 13 43.69 +21 01 48.9 19.9   704 – Lincoln Laboratory ETS, New Mexico MPS 44715
2001 10 24.44229 04 13 43.37 +21 01 46.9 20.0   704 – Lincoln Laboratory ETS, New Mexico MPS 44716
2001 10 24.45867 04 13 42.96 +21 01 44.5 20.3   704 – Lincoln Laboratory ETS, New Mexico MPS 44716
2001 10 24.47520 04 13 42.67 +21 01 42.5 20.2   704 – Lincoln Laboratory ETS, New Mexico MPS 44716
2001 11 09.35920 04 04 56.51 +20 12 16.7 19.1   704 – Lincoln Laboratory ETS, New Mexico MPS 41281
2001 11 09.37357 04 04 55.80 +20 12 12.9 19.3   704 – Lincoln Laboratory ETS, New Mexico MPS 41281
2001 11 09.38794 04 04 55.09 +20 12 10.0 19.2   704 – Lincoln Laboratory ETS, New Mexico MPS 41281
2001 11 09.40230 04 04 54.38 +20 12 07.0 19.3   704 – Lincoln Laboratory ETS, New Mexico MPS 41281
2001 11 12.31066 04 02 34.00 +20 00 34.3 18.7   704 – Lincoln Laboratory ETS, New Mexico MPS 41281
2001 11 12.32487 04 02 33.21 +20 00 30.3 19.5   704 – Lincoln Laboratory ETS, New Mexico MPS 41281
2001 11 12.33915 04 02 32.43 +20 00 26.5 18.8   704 – Lincoln Laboratory ETS, New Mexico MPS 41281
2001 11 12.35377 04 02 31.63 +20 00 22.9 19.5   704 – Lincoln Laboratory ETS, New Mexico MPS 41281
2001 11 16.39528 03 59 00.91 +19 43 24.1 19.4   644 – Palomar Mountain/NEAT MPS 42150
2001 11 16.41722 03 58 59.65 +19 43 18.0 19.3   644 – Palomar Mountain/NEAT MPS 42150
2001 11 16.43886 03 58 58.43 +19 43 12.2 19.1   644 – Palomar Mountain/NEAT MPS 42150
2001 11 18.22583 03 57 21.86 +19 35 25.8 19.2 V 291 – LPL/Spacewatch II MPS 42150
2001 11 18.24713 03 57 20.63 +19 35 20.3 19.1 V 291 – LPL/Spacewatch II MPS 42150
2001 11 18.26838 03 57 19.40 +19 35 14.9 19.2 V 291 – LPL/Spacewatch II MPS 42150
2001 11 20.29087 03 55 27.41 +19 26 19.6 18.2   704 – Lincoln Laboratory ETS, New Mexico MPS 44716
2001 11 20.30576 03 55 26.55 +19 26 15.5 18.5   704 – Lincoln Laboratory ETS, New Mexico MPS 44716
2001 11 20.32043 03 55 25.68 +19 26 11.4 18.5   704 – Lincoln Laboratory ETS, New Mexico MPS 44716
2001 11 20.33511 03 55 24.84 +19 26 07.6 18.4   704 – Lincoln Laboratory ETS, New Mexico MPS 44716
2001 11 20.34979 03 55 24.00 +19 26 03.4 18.4   704 – Lincoln Laboratory ETS, New Mexico MPS 44716
2001 11 21.29403 03 54 31.56 +19 21 51.0 18.6   704 – Lincoln Laboratory ETS, New Mexico MPS 55109
2001 11 21.30862 03 54 30.69 +19 21 46.6 18.9   704 – Lincoln Laboratory ETS, New Mexico MPS 55109
2001 11 21.32328 03 54 29.80 +19 21 42.4 18.9   704 – Lincoln Laboratory ETS, New Mexico MPS 55109
2001 11 21.33787 03 54 28.96 +19 21 38.5 18.9   704 – Lincoln Laboratory ETS, New Mexico MPS 55109
2001 11 21.35247 03 54 28.09 +19 21 34.7 18.7   704 – Lincoln Laboratory ETS, New Mexico MPS 55109
2001 12 08.11929 03 39 53.60 +18 09 48.8 18.8 R 699 – Lowell Observatory-LONEOS MPS 44716
2001 12 08.14511 03 39 52.44 +18 09 43.9   699 – Lowell Observatory-LONEOS MPS 44716
2001 12 08.17101 03 39 51.17 +18 09 37.9   699 – Lowell Observatory-LONEOS MPS 44716
2001 12 08.19700 03 39 50.02 +18 09 32.5   699 – Lowell Observatory-LONEOS MPS 44716
2001 12 11.22481 03 37 43.62 +17 58 35.4 19.1   704 – Lincoln Laboratory ETS, New Mexico MPS 44716
2001 12 11.24066 03 37 42.96 +17 58 32.1 19.3   704 – Lincoln Laboratory ETS, New Mexico MPS 44716
2001 12 11.25631 03 37 42.33 +17 58 29.6 19.7   704 – Lincoln Laboratory ETS, New Mexico MPS 44716
2001 12 11.27274 03 37 41.60 +17 58 25.6 19.1   704 – Lincoln Laboratory ETS, New Mexico MPS 44716
2001 12 11.28844 03 37 40.92 +17 58 22.7 19.4   704 – Lincoln Laboratory ETS, New Mexico MPS 44716
2001 12 14.15318 03 35 56.50 +17 49 02.1 19.2   704 – Lincoln Laboratory ETS, New Mexico MPS 44716
2001 12 14.16838 03 35 55.93 +17 48 59.6 19.1   704 – Lincoln Laboratory ETS, New Mexico MPS 44716
2001 12 14.18365 03 35 55.37 +17 48 56.6 19.1   704 – Lincoln Laboratory ETS, New Mexico MPS 44716
2001 12 14.19888 03 35 54.83 +17 48 54.0 18.9   704 – Lincoln Laboratory ETS, New Mexico MPS 44716
2001 12 14.21398 03 35 54.27 +17 48 51.3 19.4   704 – Lincoln Laboratory ETS, New Mexico MPS 44716
2001 12 17.15153 03 34 23.14 +17 40 23.4 18.9   704 – Lincoln Laboratory ETS, New Mexico MPS 44716
2001 12 17.16670 03 34 22.68 +17 40 20.8 19.2   704 – Lincoln Laboratory ETS, New Mexico MPS 44716
2001 12 17.18188 03 34 22.23 +17 40 18.4 19.2   704 – Lincoln Laboratory ETS, New Mexico MPS 44716
2001 12 17.19707 03 34 21.74 +17 40 16.1 18.8   704 – Lincoln Laboratory ETS, New Mexico MPS 44716
2001 12 17.21239 03 34 21.25 +17 40 13.9 19.1   704 – Lincoln Laboratory ETS, New Mexico MPS 44716
2001 12 19.12947 03 33 31.46 +17 35 21.7 19.5 V 691 – Steward Observatory, Kitt Peak-Spacewatch MPS 44716
2001 12 19.15154 03 33 30.88 +17 35 18.7 19.5 V 691 – Steward Observatory, Kitt Peak-Spacewatch MPS 44716
2001 12 19.20335 03 33 29.48 +17 35 11.3 19.9 V 691 – Steward Observatory, Kitt Peak-Spacewatch MPS 44716
2001 12 20.16932 03 33 07.36 +17 32 56.4 19.8   704 – Lincoln Laboratory ETS, New Mexico MPS 46670
2001 12 20.18437 03 33 06.94 +17 32 53.9 20.0   704 – Lincoln Laboratory ETS, New Mexico MPS 46670
2001 12 20.19945 03 33 06.57 +17 32 52.4 19.7   704 – Lincoln Laboratory ETS, New Mexico MPS 46670
2001 12 20.21545 03 33 06.11 +17 32 50.0 19.8   704 – Lincoln Laboratory ETS, New Mexico MPS 46670
2002 01 13.08704 03 34 51.95 +17 23 54.8 20.1   704 – Lincoln Laboratory ETS, New Mexico MPS 46670
2002 01 13.10212 03 34 52.31 +17 23 55.6 20.3   704 – Lincoln Laboratory ETS, New Mexico MPS 46670
2002 01 13.11721 03 34 52.79 +17 23 58.6 20.3   704 – Lincoln Laboratory ETS, New Mexico MPS 46670
2002 01 13.13476 03 34 53.28 +17 23 59.8 19.9   704 – Lincoln Laboratory ETS, New Mexico MPS 46670
2003 04 25.31538 14 11 22.06 -13 55 59.5 21.2 V 691 – Steward Observatory, Kitt Peak-Spacewatch MPS 145940
2003 04 25.34506 14 11 20.37 -13 55 49.9 20.8 V 691 – Steward Observatory, Kitt Peak-Spacewatch MPS 145940
2003 04 25.37213 14 11 18.84 -13 55 40.8 20.9 V 691 – Steward Observatory, Kitt Peak-Spacewatch MPS 145940
2005 10 23.48420 03 53 11.07 +20 17 15.2 19.0 V 703 – Catalina Sky Survey MPS 145940
2005 10 23.49443 03 53 10.89 +20 17 14.5 19.0 V 703 – Catalina Sky Survey MPS 145940
2005 10 23.50466 03 53 10.60 +20 17 11.7 19.0 V 703 – Catalina Sky Survey MPS 145940
2005 10 23.51490 03 53 10.24 +20 17 10.8 18.9 V 703 – Catalina Sky Survey MPS 145940
2005 10 25.30829 03 52 22.89 +20 12 02.7 18.9 R 699 – Lowell Observatory-LONEOS MPS 145940
2005 10 25.33027 03 52 22.15 +20 11 59.3   699 – Lowell Observatory-LONEOS MPS 145940
2005 10 25.35225 03 52 21.44 +20 11 55.8   699 – Lowell Observatory-LONEOS MPS 145940
2005 10 25.37422 03 52 20.72 +20 11 51.1   699 – Lowell Observatory-LONEOS MPS 145940
2005 10 30.28959 03 49 37.45 +19 55 51.3 19.4 R 644 – Palomar Mountain/NEAT MPS 147343
2005 10 30.31105 03 49 36.62 +19 55 46.3 19.2 R 644 – Palomar Mountain/NEAT MPS 147343
2005 10 30.33278 03 49 35.72 +19 55 41.8 19.1 R 644 – Palomar Mountain/NEAT MPS 147343
2005 11 01.32658 03 48 17.11 +19 48 24.5 19.4   704 – Lincoln Laboratory ETS, New Mexico MPS 147343
2005 11 01.33869 03 48 16.52 +19 48 21.6 19.3   704 – Lincoln Laboratory ETS, New Mexico MPS 147343
2005 11 01.36279 03 48 15.42 +19 48 16.7 19.1   704 – Lincoln Laboratory ETS, New Mexico MPS 147343
2005 11 04.32955 03 46 07.04 +19 36 38.8 19.0   704 – Lincoln Laboratory ETS, New Mexico MPS 149335
2005 11 04.34152 03 46 06.38 +19 36 35.5 19.0   704 – Lincoln Laboratory ETS, New Mexico MPS 149335
2005 11 04.35353 03 46 05.90 +19 36 32.8 19.1   704 – Lincoln Laboratory ETS, New Mexico MPS 149335
2005 11 04.36551 03 46 05.33 +19 36 29.7 19.1   704 – Lincoln Laboratory ETS, New Mexico MPS 149335
2005 11 04.37746 03 46 04.68 +19 36 26.5 19.3   704 – Lincoln Laboratory ETS, New Mexico MPS 149335
